MAUNA LOA HI US current weather conditions

sailwx.info

Wind from 019 at 5 knots gusting 11

Air temperature 17.8° C
Dewpoint 13.2° C

Last reported at 2017-Apr-27 02:34 UTC.
Time now 2017-Apr-27 03:34 UTC

Location: N 19°28' W 155°22'.
View on Google Maps.

See reports from other nearby stations

  
Tides and Currents Weather Stations Pressure Air Temp Water Temp Dewpoint Dewpoint Depression Visibility Wind Speed Wind Dir Waves Ship Positions
date/time (UTC)wind fromknots sea level pressurealtimeterstation pressurevisibilityair tempwater tempwave heightnotes
2017-Apr-27 02:34 019 5 gusting 11 17.8
2017-Apr-27 01:34 032 5 gusting 13 18.9
2017-Apr-27 00:34 037 5 gusting 13 21.1
2017-Apr-26 23:34 032 6 gusting 13 22.2
2017-Apr-26 22:34 021 6 gusting 16 21.1
2017-Apr-26 21:34 044 6 gusting 13 21.7
2017-Apr-26 20:34 054 4 gusting 12 22.2
2017-Apr-26 19:34 035 3 gusting 12 20.0
2017-Apr-26 18:34 027 6 gusting 13 17.8
2017-Apr-26 17:34 033 3 gusting 12 17.2
2017-Apr-26 16:34 318 4 gusting 13 13.3
2017-Apr-26 15:34 325 6 gusting 12 11.1
2017-Apr-26 14:34 319 6 gusting 13 10.6
2017-Apr-26 13:34 329 6 gusting 13 11.1
2017-Apr-26 12:34 348 7 gusting 12 10.6
2017-Apr-26 11:34 332 4 gusting 13 10.6
2017-Apr-26 10:34 353 6 gusting 12 10.6
2017-Apr-26 09:34 003 7 gusting 13 10.6
2017-Apr-26 08:34 339 5 gusting 11 10.6
2017-Apr-26 07:34 002 5 gusting 11 10.6
2017-Apr-26 06:34 341 5 gusting 14 11.7
2017-Apr-26 05:34 006 6 gusting 12 12.2
2017-Apr-26 04:34 009 8 gusting 13 13.9
2017-Apr-26 03:34 014 7 gusting 13 16.7
2017-Apr-26 02:34 019 7 gusting 15 18.3
2017-Apr-26 01:34 029 6 gusting 14 20.6
2017-Apr-26 00:34 045 6 gusting 16 21.1
2017-Apr-25 23:34 013 6 gusting 15 20.6
2017-Apr-25 22:34 020 9 gusting 16 19.4
2017-Apr-25 21:34 027 6 gusting 13 18.3
2017-Apr-25 20:34 046 5 gusting 13 18.9
2017-Apr-25 19:34 020 6 gusting 13 19.4
2017-Apr-25 18:34 006 6 gusting 13 17.2
2017-Apr-25 17:34 339 6 gusting 13 15.0
2017-Apr-25 16:34 295 6 gusting 11 12.2
2017-Apr-25 15:34 322 5 gusting 12 11.1
2017-Apr-25 14:34 326 6 gusting 12 10.6
2017-Apr-25 13:34 328 5 gusting 13 11.1
2017-Apr-25 12:34 327 5 gusting 12 10.0
2017-Apr-25 11:34 005 6 gusting 10 10.0
2017-Apr-25 10:34 316 5 gusting 8 10.0
2017-Apr-25 09:34 312 5 gusting 9 10.0
2017-Apr-25 08:34 316 5 gusting 9 10.0
2017-Apr-25 07:34 309 5 gusting 8 9.4
2017-Apr-25 06:34 314 5 gusting 6 10.6
2017-Apr-25 05:34 325 3 gusting 6 12.2
2017-Apr-25 04:34 329 2 gusting 6 15.0
2017-Apr-25 03:34 348 0 gusting 6 16.7